Sault Sainte Marie, MI

8:21 PM EDT on August 25, 2016 (GMT -0400)
Sault Ste Marie Municipal / Sanderson Field

Weather History for KANJ - September, 2011

Change the Weather History Date:

Wednesday, September 14, 2011

  Actual Average Record
Temperature  
Mean Temperature 50 °F 58 °F  
Max Temperature 55 °F 67 °F 89 °F (1939)
Min Temperature 44 °F 48 °F 32 °F (1953)
Degree Days  
Heating Degree Days 15 8  
Month to date heating degree days 65 84  
Since 1 July heating degree days 98 231  
Cooling Degree Days 0 1  
Month to date cooling degree days 24 14  
Year to date cooling degree days 252 192  
Moisture  
Dew Point 38 °F    
Average Humidity 69    
Maximum Humidity 89    
Minimum Humidity 48    
Precipitation  
Precipitation 0.10 in 0.13 in 1.66 in (1941)
Month to date precipitation 1.62 1.73  
Year to date precipitation 25.06 20.90  
Sea Level Pressure  
Sea Level Pressure 29.95 in    
Wind  
Wind Speed 12 mph (WNW)    
Max Wind Speed 24 mph    
Max Gust Speed 35 mph    
Visibility 10 miles    
Events Rain    
T = Trace of Precipitation, MM = Missing Value Source: NWS Daily Summary

Daily Weather History Graph

Daily Weather History Graph

Search for Another Location

Airport or City:

Trip Planner

Search our weather history database for the weather conditions in past years. The results will help you decide how hot, cold, wet, or windy it might be!

Date:

Astronomy

Sep. 14, 2011 Rise Set
Actual Time 7:13 AM EDT 7:51 PM EDT
Civil Twilight 6:43 AM EDT 8:21 PM EDT
Nautical Twilight 6:07 AM EDT 8:57 PM EDT
Astronomical Twilight 5:29 AM EDT 9:35 PM EDT
Moon 8:21 PM EDT (9/14) 9:36 AM EDT (9/14)
Length of Visible Light 13h 38m
Length of Day
12h 37m
Waning Gibbous, 95% of the Moon is Illuminated
Sep 14
Waning Gibbous
Sep 20
Last Quarter
Sep 27
New
Oct 3
First Quarter
Oct 11
Full

Hourly Weather History & Observations

Time (EDT) Temp. Windchill Dew Point Humidity Pressure Visibility Wind Dir Wind Speed Gust Speed Precip Events Conditions
12:55 AM 45.0 °F 43.5 °F 41.0 °F 86% 29.86 in 10.0 mi SE 3.5 mph - N/A   Overcast
1:55 AM 46.0 °F 44.8 °F 42.1 °F 86% 29.83 in 10.0 mi ESE 3.5 mph - N/A   Overcast
2:55 AM 46.9 °F - 43.0 °F 86% 29.82 in 10.0 mi SSE 3.5 mph - 0.01 in   Overcast
3:55 AM 50.0 °F - 46.0 °F 86% 29.80 in 10.0 mi West 3.5 mph - 0.00 in   Overcast
4:55 AM 54.0 °F - 48.9 °F 83% 29.81 in 10.0 mi West 8.1 mph - 0.00 in Rain Light Rain
5:55 AM 54.0 °F - 46.0 °F 75% 29.82 in 9.0 mi WNW 10.4 mph 21.9 mph 0.01 in Rain Light Rain
6:55 AM 53.1 °F - 43.0 °F 69% 29.84 in 10.0 mi WNW 10.4 mph 19.6 mph 0.00 in Rain Light Rain
7:55 AM 51.1 °F - 39.9 °F 66% 29.87 in 10.0 mi WNW 12.7 mph 25.3 mph 0.02 in   Overcast
8:55 AM 52.0 °F - 37.0 °F 57% 29.91 in 10.0 mi WNW 12.7 mph 25.3 mph N/A   Clear
9:55 AM 52.0 °F - 32.0 °F 47% 29.94 in 10.0 mi WNW 15.0 mph 27.6 mph N/A   Clear
10:55 AM 53.1 °F - 35.1 °F 50% 29.95 in 10.0 mi WNW 15.0 mph 24.2 mph 0.00 in   Partly Cloudy
11:55 AM 51.1 °F - 37.0 °F 59% 29.98 in 10.0 mi WNW 15.0 mph 31.1 mph N/A   Mostly Cloudy
12:55 PM 53.1 °F - 37.9 °F 57% 29.99 in 10.0 mi WNW 13.8 mph 26.5 mph 0.00 in   Partly Cloudy
1:55 PM 54.0 °F - 37.9 °F 55% 29.99 in 10.0 mi NW 13.8 mph 27.6 mph N/A   Mostly Cloudy
2:55 PM 51.1 °F - 35.1 °F 54% 30.01 in 10.0 mi NW 19.6 mph 28.8 mph 0.00 in   Mostly Cloudy
3:55 PM 52.0 °F - 34.0 °F 50% 30.01 in 10.0 mi NW 20.7 mph 29.9 mph N/A   Mostly Cloudy
4:55 PM 52.0 °F - 35.1 °F 53% 30.02 in 10.0 mi NW 15.0 mph 27.6 mph N/A   Scattered Clouds
5:55 PM 50.0 °F - 36.0 °F 59% 30.04 in 10.0 mi NW 18.4 mph 31.1 mph 0.00 in   Mostly Cloudy
6:55 PM 46.9 °F - 35.1 °F 63% 30.04 in 10.0 mi NW 16.1 mph 23.0 mph N/A   Partly Cloudy
7:55 PM 46.0 °F 38.8 °F 37.0 °F 71% 30.06 in 10.0 mi WNW 18.4 mph 32.2 mph 0.03 in Rain Light Rain
8:55 PM 46.0 °F 41.9 °F 35.1 °F 66% 30.07 in 10.0 mi WNW 8.1 mph - 0.00 in   Scattered Clouds
9:55 PM 46.0 °F 40.6 °F 35.1 °F 66% 30.08 in 10.0 mi WNW 11.5 mph 17.3 mph 0.03 in   Partly Cloudy
10:55 PM 46.9 °F - 32.0 °F 56% 30.07 in 10.0 mi NW 11.5 mph 17.3 mph N/A   Partly Cloudy
11:55 PM 48.0 °F - 30.9 °F 52% 30.07 in 10.0 mi NW 11.5 mph 20.7 mph N/A   Scattered Clouds